Location: Tierra del Sol
(32.6128°N, 116.3319°W)
Time: 11:05:27
(UTC-07:00)

Tiangong 1 - Pass Details

Date: 08 October 2017
Orbit: 293 x 320 km, 42.8° (Epoch: 20 October)

Event Time Altitude Azimuth Distance (km) Brightness Sun altitude
Rises 19:00:14 0° 287° (WNW) 2,039 6.4 -9.2°
Reaches altitude 10° 19:03:00 10° 319° (NW) 1,202 4.2 -9.8°
Maximum altitude 19:04:19 13° 348° (NNW) 1,062 3.4 -10.0°
Drops below altitude 10° 19:05:37 10° 17° (NNE) 1,195 3.4 -10.3°
Enters shadow 19:06:39 - 33° (NNE) 1,451 3.7 -10.5°
